WetterOnline ( https://www.wetteronline.ch )

Wetter aktuell Prag

Aktuelles Wetter: Prag-Kbely (287m)

6-stündlich | Neueste Meldungen
Ortszeit Temperatur Wetter
Sa, 15.05. 20:00 13.3° C wolkig
Sa, 15.05. 14:00 14.7° C bewölkt
Sa, 15.05. 8:00 8.4° C wolkig
Sa, 15.05. 2:00 8.1° C leicht bewölkt
Fr, 14.05. 20:00 10.6° C leichte Schauer
Fr, 14.05. 14:00 13.5° C bewölkt
Fr, 14.05. 8:00 9.6° C leichter Regen
Fr, 14.05. 2:00 8.7° C leichter Regen
Ortszeit Temperatur Wetter
So, 16.05. 1:00 8° C -
So, 16.05. 0:00 9.7° C leicht bewölkt
Sa, 15.05. 23:00 9.8° C wolkig
Sa, 15.05. 22:00 11.7° C leichte Schauer
Sa, 15.05. 21:00 11.9° C wolkig
Sa, 15.05. 20:00 13.3° C wolkig
Ortszeit Relative Feuchte Sichtweite
Sa, 15.05. 20:00 87% 15 km
Sa, 15.05. 14:00 67% 30 km
Sa, 15.05. 8:00 100% 9 km
Sa, 15.05. 2:00 100% 20 km
Fr, 14.05. 20:00 95% 15 km
Fr, 14.05. 14:00 79% 30 km
Fr, 14.05. 8:00 98% 15 km
Fr, 14.05. 2:00 97% 15 km
Ortszeit Relative Feuchte Sichtweite
So, 16.05. 1:00 93% >10 km
So, 16.05. 0:00 91% 30 km
Sa, 15.05. 23:00 86% 30 km
Sa, 15.05. 22:00 98% 30 km
Sa, 15.05. 21:00 91% 30 km
Sa, 15.05. 20:00 87% 15 km
Ortszeit Niederschlagsmenge Niederschlagsart
Sa, 15.05. 20:00 0.1 l/m2 in 12 Std. Gewitter, Schauer
Sa, 15.05. 14:00 0.0 l/m2 in 6 Std. -
Sa, 15.05. 8:00 0.1 l/m2 in 12 Std. Nebel
Sa, 15.05. 2:00 0.0 l/m2 in 6 Std. -
Fr, 14.05. 20:00 3 l/m2 in 12 Std. Schauer
Fr, 14.05. 14:00 0.9 l/m2 in 6 Std. Regenschauer
Fr, 14.05. 8:00 8 l/m2 in 12 Std. Regen
Fr, 14.05. 2:00 4 l/m2 in 6 Std. Regen
Ortszeit Niederschlagsmenge Niederschlagsart
So, 16.05. 1:00 keine Meldung -
So, 16.05. 0:00 0.0 l/m2 in 1 Std. -
Sa, 15.05. 23:00 0.8 l/m2 in 1 Std. Schauer
Sa, 15.05. 22:00 0.1 l/m2 in 1 Std. -
Sa, 15.05. 21:00 0.0 l/m2 in 1 Std. -
Sa, 15.05. 20:00 0.0 l/m2 in 1 Std. Gewitter, Schauer
Ortszeit Stärke Spitze Richtung
km/h Bft. km/h Grad Sektor
Sa, 15.05. 20:00 11 2 - 120° SO
Sa, 15.05. 14:00 14 3 - 220° SW
Sa, 15.05. 8:00 7 2 - 210° SW
Sa, 15.05. 2:00 7 2 - 190° S
Fr, 14.05. 20:00 4 1 - 250° W
Fr, 14.05. 14:00 11 2 - 250° W
Fr, 14.05. 8:00 14 3 - 240° SW
Fr, 14.05. 2:00 18 3 - 260° W
Ortszeit Stärke Spitze Richtung
km/h Bft. km/h Grad Sektor
So, 16.05. 1:00 2 1 - uml. uml.
So, 16.05. 0:00 7 2 - 10° N
Sa, 15.05. 23:00 4 1 - 230° SW
Sa, 15.05. 22:00 7 2 - 170° S
Sa, 15.05. 21:00 11 2 - 100° O
Sa, 15.05. 20:00 11 2 - 120° SO
Ortszeit Untergrenze Bedeckung Gattung
total tief tief mittel hoch
Sa, 15.05. 20:00 900 m 6/8 6/8 Cb - -
Sa, 15.05. 14:00 720 m 7/8 3/8 Cu As -
Sa, 15.05. 8:00 60 m 6/8 1/8 St As Ci
Sa, 15.05. 2:00 1500 m 3/8 3/8 Sc - -
Fr, 14.05. 20:00 1140 m 6/8 6/8 Cb - -
Fr, 14.05. 14:00 660 m 7/8 7/8 Cu - -
Fr, 14.05. 8:00 1260 m 8/8 5/8 Sc Ns -
Fr, 14.05. 2:00 930 m 8/8 5/8 Sc Ns -
Ortszeit Bedeckungsgrad in Achtel und Wolkenuntergrenze
So, 16.05. 1:00 keine Wolken(unter 1500 m)
So, 16.05. 0:00 5(3000m)
Sa, 15.05. 23:00 2(1440m) 6(2700m)
Sa, 15.05. 22:00 2(420m) 4(1800m) 7(2700m)
Sa, 15.05. 21:00 2(900m) 4(2400m) 7(3000m)
Sa, 15.05. 20:00 1(900m) 3(990m) 6(1800m)
Ortszeit Luftdruck NN (hPa) Tendenz (hPa in 3 Std.)
Sa, 15.05. 20:00 1006 - 1,3
Sa, 15.05. 14:00 1009 - 1,4
Sa, 15.05. 8:00 1011 + 0,6
Sa, 15.05. 2:00 1010 0,0
Fr, 14.05. 20:00 1009 + 0,6
Fr, 14.05. 14:00 1008 + 0,4
Fr, 14.05. 8:00 1007 + 1,0
Fr, 14.05. 2:00 1006 + 0,3
Ortszeit Luftdruck NN (hPa) Tendenz (hPa in 3 Std.)
So, 16.05. 1:00 1005 keine Meldung
So, 16.05. 0:00 1006 - 0,3
Sa, 15.05. 23:00 1006 0,0
Sa, 15.05. 22:00 1006 + 0,1
Sa, 15.05. 21:00 1006 - 0,8
Sa, 15.05. 20:00 1006 - 1,3
Ortszeit Schneehöhe (cm)
Sa, 15.05. 20:00 -
Sa, 15.05. 14:00 -
Sa, 15.05. 8:00 -
Sa, 15.05. 2:00 -
Fr, 14.05. 20:00 -
Fr, 14.05. 14:00 -
Fr, 14.05. 8:00 -
Fr, 14.05. 2:00 -
Ortszeit Schneehöhe (cm)
So, 16.05. 1:00 -
So, 16.05. 0:00 -
Sa, 15.05. 23:00 -
Sa, 15.05. 22:00 -
Sa, 15.05. 21:00 -
Sa, 15.05. 20:00 -
Link zu dieser Seite / Seite empfehlen

Das Wetter in ...